Location: Pedimozza
(42.0500°N, 9.3500°E)
Time: 07:50:44
(UTC+00:00)

Daily predictions for brighter satellites

Satellite Brightness Start Highest point End
(mag) Time Altitude Azimuth Time Altitude Azimuth Time Altitude Azimuth
CENTAUR R/B 3.6 18:31:22 10° NW 18:39:28 70° WSW 18:48:07 10° SSE
USA 267 4.2 18:37:44 10° NE 18:44:00 51° NNW 18:50:17 10° WSW
Unknown 3.3 18:41:20 10° WNW 18:44:45 71° SW 18:48:09 10° SE
Cosmos 1656 Rocket 3.8 18:40:52 10° NNW 18:46:29 66° ENE 18:52:02 10° SSE
Unknown 3.2 18:43:55 10° NW 18:47:27 81° SW 18:50:57 10° SE
SPOT 3 Rocket 3.6 18:49:02 10° SSE 18:54:11 67° ENE 18:59:20 10° N
USA 186 0.9 18:55:40 10° SSE 18:58:02 79° E 19:00:34 10° N
Unknown 4.5 18:54:51 10° NW 18:58:47 40° NNE 19:02:40 10° E
BREEZE-M DEB (TANK) 4.2 18:56:57 10° NW 18:58:56 18° N 19:00:33 10° NE
Falcon 9 debris 3.8 18:56:13 10° WNW 18:59:34 50° SW 19:02:55 10° SE
Unknown 4.5 18:56:29 10° NW 19:00:25 40° NNE 19:04:15 11° E
Unknown 4.4 18:58:14 10° NW 19:02:13 42° NNE 19:05:57 11° E
Unknown 3.4 18:58:50 10° NW 19:02:35 78° NE 19:05:58 12° ESE
CZ-2C R/B 4.0 18:58:48 10° ESE 19:02:41 26° ENE 19:06:34 10° NNE
Meteor 1-25 Rocket 4.3 18:58:04 10° S 19:03:40 64° E 19:09:23 10° NNE
Unknown 4.4 18:59:49 10° NW 19:03:47 42° NNE 19:07:28 12° E
Unknown 4.3 19:01:34 10° NW 19:05:34 44° NNE 19:09:09 12° E
FALCON 9 DEB 3.9 19:02:28 10° WNW 19:05:48 47° SW 19:09:06 10° SSE
Unknown 4.1 19:02:37 10° NW 19:06:33 48° NNE 19:09:59 13° ESE
Unknown 4.3 19:03:07 10° NW 19:07:06 44° NNE 19:10:38 13° E
Unknown 4.4 19:03:29 10° NW 19:07:29 43° NNE 19:11:01 13° E
Unknown 4.3 19:04:49 10° NW 19:08:49 45° NNE 19:12:17 13° E
Meteor 1-14 Rocket 4.5 19:03:33 10° S 19:09:21 54° E 19:15:08 10° NNE
Cosmos 2369 Rocket 3.9 19:06:22 10° NW 19:11:19 32° WSW 19:16:13 10° SSW
Cosmos 1869 Rocket 3.4 19:07:14 10° S 19:11:32 78° E 19:15:53 10° N
Unknown 4.2 19:09:45 10° NW 19:13:48 49° NNE 19:17:02 15° ESE
Unknown 4.1 19:11:24 10° NW 19:15:28 50° NNE 19:18:38 16° ESE
Unknown 3.5 19:11:41 10° NW 19:15:35 73° NE 19:18:31 17° ESE
ATLAS 3B R/B 4.1 19:09:44 10° NW 19:15:42 35° WSW 19:21:51 10° S
Unknown 4.1 19:13:05 10° NW 19:17:09 51° NNE 19:20:15 16° ESE
USA 234 3.4 19:10:51 10° SE 19:17:24 76° SW 19:23:59 10° NW
Okean 1 3.6 19:13:58 10° N 19:17:49 47° E 19:21:12 13° SSE
Unknown 4.0 19:14:46 10° NW 19:18:51 53° NNE 19:21:52 17° ESE
Cosmos 1733 Rocket 4.0 19:15:39 12° SE 19:18:52 27° E 19:22:31 10° NNE
Unknown 4.0 19:16:18 10° NW 19:20:20 54° NNE 19:23:15 18° ESE
Cosmos 773 Rocket 3.9 19:16:25 10° NNW 19:21:37 85° ENE 19:26:44 10° SSE
Unknown 4.0 19:18:03 10° NW 19:22:08 56° NNE 19:25:02 18° ESE
Unknown 3.4 19:18:59 10° NW 19:22:50 90° NNW 19:25:26 20° SE
Unknown 3.9 19:19:42 10° NW 19:23:49 58° NNE 19:26:38 19° ESE
SL-08 RB Rocket 3.9 19:21:10 12° SSE 19:25:11 55° ENE 19:29:40 10° N
Unknown 3.9 19:21:21 10° NW 19:25:28 59° NNE 19:28:12 20° ESE
Unknown 3.9 19:22:58 10° NW 19:27:04 59° NNE 19:29:45 20° ESE
Unknown 3.8 19:24:42 10° NW 19:28:49 62° NNE 19:31:26 21° ESE
Unknown 3.9 19:26:06 10° NW 19:30:13 59° NNE 19:32:47 22° ESE
Abrixas rocket 2.0 19:28:52 10° WSW 19:31:56 87° NW 19:34:46 12° ENE
Unknown 3.8 19:29:31 10° NW 19:33:37 63° NNE 19:36:02 23° ESE
S3M 4.4 19:28:42 10° SSE 19:34:34 42° E 19:40:23 10° NNE
Unknown 3.8 19:31:09 10° NW 19:35:17 64° NE 19:37:38 24° ESE
Unknown 3.7 19:32:58 10° NW 19:37:07 72° NE 19:39:23 26° ESE
Cosmos 1777 Rocket 4.3 19:32:22 10° SSW 19:37:36 73° WNW 19:42:54 10° NNE
Unknown 3.7 19:34:27 10° NW 19:38:35 68° NE 19:40:47 26° ESE
H-2A R/B 2.1 19:34:02 10° S 19:39:07 76° WSW 19:44:06 10° NNW
Cosmos 44 2.9 19:35:09 10° NNW 19:39:39 87° ENE 19:42:15 24° SSE
Unknown 3.7 19:36:08 10° NW 19:40:17 71° NE 19:42:26 27° ESE
Shenzhou-11 Module 2.6 19:38:58 10° SW 19:41:12 31° S 19:41:12 31° S
Cosmos 2221 Rocket 3.5 19:38:39 10° N 19:43:04 87° W 19:46:52 14° S
Unknown 3.6 19:39:30 10° NW 19:43:40 74° NE 19:45:40 29° ESE
GP-B 4.1 19:40:22 10° NNE 19:44:10 27° E 19:45:01 25° ESE
Unknown 3.6 19:41:06 10° NW 19:45:15 77° NE 19:47:11 30° ESE
COSMOS 2406 3.7 19:40:22 10° S 19:45:31 37° ESE 19:50:43 10° NE
Cosmos 923 Rocket 4.3 19:41:39 10° N 19:46:52 51° ENE 19:49:38 26° SE
Unknown 3.6 19:42:46 10° NW 19:46:56 79° NE 19:48:49 31° ESE
Unknown 3.6 19:44:24 10° NW 19:48:34 81° NE 19:50:22 33° ESE
Unknown 3.6 19:46:05 10° NW 19:50:15 84° NE 19:52:00 34° ESE
Cosmos 1898 Rocket 4.3 19:49:38 26° ESE 19:50:48 29° E 19:55:16 10° NE
Terra 3.9 19:51:05 12° ENE 19:51:58 13° ENE 19:53:58 10° NE
Cosmos 1745 Rocket 4.1 19:46:23 10° N 19:52:23 53° ENE 19:55:55 25° SE
OAO 3 Rocket 3.9 19:48:05 10° SW 19:52:24 33° S 19:53:32 29° SE
Cosmos 1536 4.2 19:53:01 23° E 19:53:01 23° E 19:55:54 10° NE
CZ-2C R/B 3.2 19:48:59 10° NNE 19:53:49 36° E 19:55:40 28° SE
Unknown 3.6 19:49:43 10° NW 19:53:52 82° SW 19:55:29 36° SE
Resurs 1-3 4.1 19:49:57 12° S 19:53:55 60° W 19:58:16 10° NNW
Cosmos 1538 Rocket 4.4 19:49:51 10° NNW 19:54:57 60° WSW 19:59:05 15° S
Cosmos 1980 Rocket 4.4 19:53:37 10° NNE 19:55:13 11° NE 19:56:48 10° ENE
Unknown 3.6 19:51:20 10° NW 19:55:29 81° SW 19:57:01 37° SE
Cosmos 1602 4.2 19:51:45 10° SSW 19:55:31 59° W 19:59:18 10° N
Exosat Rocket 4.4 19:48:11 10° NNW 19:56:54 65° ENE 20:00:33 27° SE
Unknown 3.5 19:52:50 10° NW 19:57:00 84° SW 19:58:28 39° SE
Aureole 3 Rocket 3.3 19:57:32 36° E 19:57:38 36° E 20:00:48 10° NNE
ASTRO E2 4.5 19:55:11 10° SW 19:57:32 17° S 19:57:32 17° S
MetOp-A 4.2 19:53:54 16° S 19:58:11 82° WSW 20:03:34 10° NNW
Unknown 3.5 19:54:25 10° NW 19:58:35 84° SW 20:00:00 40° SE
Cosmos 1680 Rocket 3.8 19:54:16 10° N 19:59:22 50° ENE 20:01:24 32° ESE
Unknown 3.6 19:57:45 10° NW 20:01:55 80° SW 20:03:12 43° SE
SPOT 5 4.2 20:02:10 19° ENE 20:02:30 20° ENE 20:05:37 10° NNE
Unknown 3.6 19:59:25 10° NW 20:03:34 77° SW 20:04:47 44° SE
Unknown 3.6 20:01:04 10° NW 20:05:13 75° SW 20:06:23 45° SSE
Unknown 3.6 20:02:44 10° NW 20:06:53 72° SW 20:07:59 46° SSE
TSX-5 4.3 20:04:05 10° N 20:07:21 38° ENE 20:07:43 37° ENE
Geosat 4.1 20:06:28 35° ESE 20:08:24 59° ENE 20:13:21 10° NNW
SL-24 R/B 4.5 20:06:37 19° S 20:10:07 75° W 20:14:59 10° N
ARGOS 4.3 20:06:51 10° SSW 20:11:53 41° W 20:16:57 10° NNW
Unknown 3.7 20:09:22 10° WNW 20:13:28 64° SW 20:14:19 49° SSE
Cosmos 2098 Rocket 3.9 20:10:41 10° N 20:14:53 41° E 20:15:39 39° ESE
OAO 2 Rocket 4.1 20:10:24 10° WSW 20:15:00 34° S 20:15:38 32° S
Unknown 3.8 20:11:02 10° WNW 20:15:08 61° SW 20:15:55 50° S
Meteor 2-4 Rocket 3.5 20:10:15 10° N 20:15:39 85° E 20:18:06 34° SSE
Cosmos 1908 Rocket 3.9 20:15:35 45° E 20:15:46 45° E 20:20:02 10° NNE
Cosmos 1241 Rocket 4.5 20:09:46 10° SSW 20:16:13 63° ESE 20:22:38 10° NE
Unknown 3.8 20:12:44 10° WNW 20:16:50 59° SW 20:17:33 50° S
Iridium 2 4.3 20:17:26 40° ENE 20:17:26 40° ENE 20:20:27 10° NNE
ADEOS Rocket 3.6 20:11:09 10° N 20:16:58 60° WNW 20:23:25 10° SSW
Unknown 3.8 20:14:21 10° WNW 20:18:26 57° SW 20:19:06 50° S
ERS-1 Rocket 3.4 20:18:29 38° E 20:19:26 43° ENE 20:24:11 10° N
Resurs 01 Rocket 2.7 20:16:46 17° SSW 20:19:47 41° W 20:23:57 10° NNW
Unknown 3.9 20:16:06 10° WNW 20:20:09 55° SW 20:20:46 49° S
SL-08 ROCKET BODY 4.4 20:16:20 10° N 20:22:11 61° E 20:24:05 41° SE
Cosmos 1500 3.1 20:22:20 66° E 20:22:20 66° E 20:26:04 10° NNE
Okean 3 4.2 20:18:36 10° NNW 20:22:39 50° W 20:24:36 27° SSW
Unknown 3.9 20:19:25 10° WNW 20:23:27 52° SW 20:23:56 48° SSW
Cosmos 44 Rocket 3.3 20:18:57 10° NNW 20:23:41 59° NE 20:24:32 50° E
DMSP B5D2-2 4.3 20:19:03 10° N 20:24:16 69° WNW 20:29:29 10° SSW
Starlink (trailer) 4.0 20:21:05 10° WNW 20:25:06 50° SW 20:25:31 48° SSW
Unknown 4.0 20:22:46 10° WNW 20:26:47 48° SW 20:27:09 47° SSW
Unknown 4.1 20:24:25 10° WNW 20:28:24 47° SW 20:28:43 46° SSW
SJ 16-02 2.4 20:30:58 32° ENE 20:30:58 32° ENE 20:33:46 10° NNE
Meteor 1-11 Rocket 3.7 20:27:37 26° S 20:31:04 84° E 20:37:04 10° N
SPOT 1/Viking Rocket 3.6 20:32:45 51° ESE 20:33:41 59° ENE 20:38:50 10° N
Aureole 2 Rocket 3.9 20:31:32 10° NW 20:33:08 26° WNW 20:33:08 26° WNW
Unknown 4.3 20:31:05 10° WNW 20:34:59 41° SW 20:35:04 41° SW
Unknown 4.4 20:32:49 10° WNW 20:36:42 40° SW 20:36:43 40° SW
Spot 2 Rocket 4.1 20:36:31 30° SSW 20:38:48 52° W 20:43:47 10° NNW
IGS 5A 3.7 20:39:39 54° NE 20:39:39 54° NE 20:43:21 10° N
Cosmos 1937 Rocket 3.5 20:40:52 59° ESE 20:41:01 60° ESE 20:46:16 10° NNE
CZ-2C R/B 4.2 20:39:46 19° SSW 20:42:25 33° W 20:46:44 10° NNW
Cosmos 990 Rocket 3.8 20:45:09 54° S 20:46:23 84° ESE 20:51:36 10° NNE
USA 245 3.9 20:48:03 58° SW 20:48:41 67° W 20:53:57 10° NNW
EO 1 Del DPAF 3.9 20:45:35 10° NNE 20:48:26 49° N 20:48:26 49° N
Cosmos 883 Rocket 4.5 20:48:27 35° S 20:51:21 85° W 20:57:45 10° N
Meteor 2-14 Rocket 4.4 20:47:18 10° N 20:53:26 80° W 20:55:14 49° S
Cosmos 1782 Rocket 4.1 20:55:08 49° NE 20:55:08 49° NE 20:58:31 10° NNE
USA 32 4.2 20:49:32 10° N 20:54:28 54° ENE 20:54:28 54° ENE
Cosmos 1378 Rocket 4.1 20:53:44 10° NNW 20:58:01 53° W 20:58:19 52° WSW
Cosmos 158 Rocket 3.9 20:52:47 10° NNW 20:58:06 75° ENE 20:58:19 74° E
Landsat 7 3.7 20:58:33 78° SW 20:58:41 79° WSW 21:03:28 10° NNW
Cosmos 2082 Rocket 3.0 21:01:47 36° ENE 21:01:47 36° ENE 21:05:30 10° NE
Cosmos 2112 Rocket 4.4 20:57:11 10° NNW 21:02:17 53° WSW 21:03:02 48° SW
Cosmos 2278 4.1 20:58:11 10° NNW 21:03:40 48° ENE 21:03:51 48° ENE
Cosmos 1833 Rocket 2.6 21:04:38 70° E 21:04:38 70° E 21:09:58 10° NNE
SL-16 R/B 4.3 21:09:26 10° NNE 21:12:24 14° NE 21:13:38 13° ENE
Cosmos 1066 Rocket 4.0 21:09:02 10° N 21:14:18 82° NE 21:14:18 82° NE
FALCON 9 R/B 3.9 20:52:40 10° WSW 21:15:02 46° S 21:15:51 45° SSE
Cosmos 1656 3.6 21:10:03 10° NNW 21:15:43 73° WSW 21:15:54 72° SW
Cosmos 1697 Rocket 2.7 21:12:46 10° NNW 21:18:19 72° NE 21:18:19 72° NE
Cosmos 1709 Rocket 4.2 21:12:33 10° NNW 21:18:35 62° W 21:19:50 51° SW
Cosmos 1666 4.5 21:22:39 30° N 21:22:39 30° N 21:24:45 10° N
Cosmos 1975 Rocket 3.8 21:17:32 10° N 21:20:54 51° NNW 21:20:54 51° NNW
MOS 1 Rocket 3.6 21:16:37 10° NNE 21:21:42 80° NNE 21:21:42 80° NNE
Cosmos 2315 Rocket 4.4 21:21:22 42° SW 21:23:27 62° W 21:29:45 10° N
Cosmos 2074 Rocket 4.1 21:19:53 10° N 21:26:00 62° ENE 21:26:00 62° ENE
Thor Agena Rocket 3.8 21:21:10 10° N 21:26:16 62° WNW 21:26:39 60° W
Terra 2.3 21:29:58 57° NNW 21:29:58 57° NNW 21:33:49 10° NNW
Cosmos 2184 Rocket 4.1 21:23:22 10° N 21:29:10 62° ENE 21:29:10 62° ENE
CZ-2C R/B 4.3 21:29:28 10° N 21:33:59 30° WNW 21:37:11 17° WSW
SPOT 5 4.1 21:41:24 32° WNW 21:41:24 32° WNW 21:44:23 10° NNW
Cosmos 1980 Rocket 2.6 21:34:51 10° NNW 21:39:42 55° NNE 21:39:42 55° NNE
BREEZE-M DEB (TANK) 4.2 21:38:16 10° WNW 21:39:55 31° W 21:39:55 31° W
Cosmos 2369 4.2 21:44:57 10° NNW 21:49:45 52° W 21:49:45 52° W
USA 229 DEB 3.8 21:48:30 10° NNW 21:55:48 77° NE 21:56:09 76° E
USA 229 3.8 21:48:36 10° NNW 21:55:54 77° NE 21:56:15 75° E
CZ-4C R/B 4.4 22:01:43 14° NE 22:01:43 14° NE 22:02:33 10° NE
NOSS 3-1 (A) 4.4 21:51:44 10° NNW 21:59:07 55° NE 22:00:33 49° E
SJ 16-02 3.7 22:07:55 19° WNW 22:08:23 19° WNW 22:11:33 10° NNW
Mayak 1.1 22:14:54 10° N 22:16:21 21° N 22:16:21 21° N
Cosmos 2322 Rocket 3.4 22:22:37 10° N 22:26:43 36° NNE 22:26:43 36° NNE
Cosmos 2082 Rocket 3.8 22:43:35 27° WNW 22:44:24 28° NW 22:49:14 10° N
BREEZE M DEB (TANK) 4.5 22:43:54 23° NW 22:46:19 43° NNE 22:58:23 10° E
NOSS 3-1 (C) 4.3 22:43:03 10° NW 22:49:54 61° W 22:49:54 61° W
SL-16 R/B 3.3 22:51:47 10° NNW 22:55:28 42° NNW 22:55:28 42° NNW
USA 215 4.2 23:09:48 10° NE 23:13:31 36° ENE 23:13:31 36° ENE
Cosmos 2360 Rocket 3.4 23:13:48 10° NNW 23:17:35 38° NNE 23:17:35 38° NNE
Cosmos 1980 Rocket 4.5 23:20:02 10° NW 23:21:28 15° WNW 23:21:28 15° WNW
Cosmos 2219 Rocket 4.1 23:22:55 10° N 23:27:10 22° NE 23:27:37 21° ENE
Lacrosse 4 Rocket 4.3 23:40:09 10° N 23:41:10 15° N 23:41:10 15° N
CZ-4C R/B 3.4 23:46:52 36° NNW 23:46:52 36° NNW 23:51:32 10° NNE
USA 267 4.2 23:46:01 23° E 23:49:43 44° NNE 23:55:51 10° NW
Resurs 1-4 Rocket 4.4 23:53:16 10° NE 23:55:16 15° ENE 23:55:16 15° ENE
